AirNav  
 
 353 users online  

WY39 Star Valley Ranch Airport
Thayne, Wyoming, USA

GOING TO THAYNE?


FAA INFORMATION EFFECTIVE 29 MARCH 2018

Location

FAA Identifier: WY39
Lat/Long: 42-58-09.7210N / 110-57-56.7540W
42-58.162017N / 110-57.945900W
42.9693669 / -110.9657650
(estimated)
Elevation: 6210 ft. / 1892.8 m (surveyed)
Variation: 15E (1985)
From city: 3 miles NE of THAYNE, WY
Time zone: UTC -6 (UTC -7 during Standard Time)
Zip code: 83127

Airport Operations

Airport use: Private use. Permission required prior to landing
Activation date: 09/1971
Control tower: no
ARTCC: SALT LAKE CITY CENTER
FSS: CASPER FLIGHT SERVICE STATION
Attendance: UNATNDD
Wind indicator: yes
Segmented circle: no

Airport Communications

WX AWOS-3 at 46U (13 nm N): 119.925 (307-654-2004)
WX AWOS-3P at AFO (16 nm S): 119.025 (307-885-2654)

Airport Services

Airframe service: NONE
Powerplant service: NONE

Runway Information

Runway 15/33

Dimensions: 5400 x 60 ft. / 1646 x 18 m
Surface: gravel
RUNWAY 15  RUNWAY 33
Traffic pattern: leftleft
Obstructions: plinepline
P-LINES BELOW NORMAL GLIDE SLOPE.

Airport Ownership and Management from official FAA records

Ownership: Privately-owned
Owner: STAR VALLEY RANCH ASSOCIATION
781 VISTA EAST DRIVE
STAR VALLEY RANCH, WY 83127
Phone 307-883-2669
Manager: TALLIA BROOKER
781 VISTA EAST DRIVE
STAR VALLEY RANCH, WY 83127
Phone 307-883-2669

Airport Operational Statistics

Aircraft based on the field: 2
Single engine airplanes: 2
    

Additional Remarks

ACFT OFTEN FUEL AT AFTON.

Instrument Procedures

There are no published instrument procedures at WY39.

Some nearby airports with instrument procedures:

KAFO - Afton Municipal Airport (16 nm S)
KJAC - Jackson Hole Airport (40 nm N)
KBPI - Miley Memorial Field Airport (44 nm SE)
KDIJ - Driggs-Reed Memorial Airport (47 nm N)
KPNA - Ralph Wenz Field Airport (52 nm E)
 
Loc | Ops | Rwys | IFR | FBO | Links
Com | Nav | Svcs | Stats | Notes

AirNav Hotels Sweepstakes
 
Area around WY39 (Star Valley Ranch Airport)
 
Road maps at: MapQuest Bing Google
 
Aerial photo
WARNING: Photo may not be current or correct
Aerial photo of WY39 (Star Valley Ranch Airport)
Do you have a better or more recent aerial photo of Star Valley Ranch Airport that you would like to share? If so, please send us your photo.

 
Sectional chart

 
Airport distance calculator
Flying to Star Valley Ranch Airport? Find the distance to fly.

From to WY39

Sunrise and sunset
Times for 22-Apr-2018
 Local
(UTC-6)
 Zulu
(UTC)
Morning civil twilight06:0212:02
Sunrise06:3212:32
Sunset20:1302:13
Evening civil twilight20:4302:43

Current date and time
Zulu (UTC)  22-Apr-2018 07:09:41
Local (UTC-6)  22-Apr-2018 01:09:41
 
METAR
KAFO 
16nm S 
220655Z AUTO 00000KT 10SM CLR 01/M01 A3022 RMK AO2
TAF
KJAC 
39nm N 
220525Z 2206/2306 VRB06KT P6SM SKC FM221600 20008KT P6SM FEW060 FM221900 22011G20KT P6SM SCT060 AMD LTD TO CLD VIS AND WIND
KBPI 
45nm SE 
220525Z 2206/2306 33007KT P6SM SKC FM221000 VRB03KT P6SM VCFG SCT004 FM221530 VRB05KT P6SM SKC FM222200 16009KT P6SM FEW060
KDIJ 
47nm N 
220520Z 2206/2306 16005KT P6SM SKC FM221800 24011KT P6SM VCSH SCT060 BKN120 AMD LTD TO CLD VIS AND WIND
NOTAMs
Click for the latest NOTAMs
NOTAMs are issued by the DoD/FAA and will open in a separate window not controlled by AirNav.

 

 
 

Would you like to see your business listed on this page?

 If your business provides an interesting product or service to pilots, flight crews, aircraft, or users of the Star Valley Ranch Airport, you should consider listing it here.  To start the listing process, click on the button below
 
Add a business
 

Other Pages about Star Valley Ranch Airport

Update a link
 
Copyright © AirNav, LLC. All rights reserved. Privacy Policy  Contact